STARLINK-36189 (67010 NORAD) Tracking and Keplerian Element Data

This shows tracking and keplerian element data for the satellite.

Feedback or suggestion? Click here.




ElementValue
Catalog67010
NameSTARLINK-36189
Epoch Orbit138
Epoch Day354.25003472
Epoch Year2025
RAAN301.9675
Inclination69.9943
Eccentricity0.0003893
Argument of Perigee270.811
Mean Anonmoly313.6653
Mean Motion15.92343617
Decay Rate-0.01121055
L11 67010U 25293H 25354.25003472 -.01121055 37453-3 -33207-2 0 9996
L22 67010 69.9943 301.9675 0003893 270.8110 313.6653 15.92343617 1389



Live tracking and technical data element details for STARLINK-36189 (NORAD 67010). STARLINK-36189 can be tracked NOW for your location showing map with azimuth and elevation plus other details from your city location.







IsCatalogInMostPopularTable: catalog: 67010, numindb: 14
Update: records affected: 1



GetName: 67010 STARLINK-36189

Hit Count: updated at: Fri, 16 Jan 2026 09:23:53 GMT